| time (UTC) | temp F | wind direction | speed MPH | gust MPH | rain 1hr in | rain 24hr in | rain mn in | humidity % | barometer mb |
| 20260504160321 | 68 | 244 | 10.0 | 19.0 | 0.00 | 0.00 | 0.00 | 38 | 1013.1 |
| 20260504150809 | 65 | 201 | 8.0 | 16.0 | 0.00 | 0.00 | 0.00 | 44 | 1013.6 |
| 20260504150302 | 64 | 146 | 9.0 | 17.0 | 0.00 | 0.00 | 0.00 | 46 | 1013.7 |
| 20260504141232 | 61 | 198 | 10.0 | 19.0 | 0.00 | 0.00 | 0.00 | 55 | 1013.9 |
| 20260504140731 | 61 | 206 | 10.0 | 19.0 | 0.00 | 0.00 | 0.00 | 55 | 1013.9 |
| 20260504140501 | 61 | 199 | 9.0 | 18.0 | 0.00 | 0.00 | 0.00 | 56 | 1013.9 |
| 20260504130719 | 58 | 206 | 11.0 | 19.0 | 0.00 | 0.00 | 0.00 | 62 | 1014.3 |
| 20260504130213 | 58 | 181 | 10.0 | 19.0 | 0.00 | 0.00 | 0.00 | 62 | 1014.4 |
| 20260504110455 | 52 | 219 | 6.0 | 11.0 | 0.00 | 0.00 | 0.00 | 75 | 1015.0 |
| 20260504100343 | 50 | 224 | 7.0 | 11.0 | 0.00 | 0.00 | 0.00 | 72 | 1015.1 |
| 20260504081648 | 49 | 231 | 3.0 | 6.0 | 0.00 | 0.00 | 0.00 | 64 | 1014.8 |
| 20260504081146 | 49 | 231 | 3.0 | 6.0 | 0.00 | 0.00 | 0.00 | 65 | 1014.8 |
| 20260504080644 | 49 | 254 | 3.0 | 5.0 | 0.00 | 0.00 | 0.00 | 65 | 1014.8 |
| 20260504080144 | 49 | 254 | 3.0 | 5.0 | 0.00 | 0.00 | 0.00 | 65 | 1014.8 |
| 20260504070139 | 49 | 254 | 1.0 | 2.0 | 0.00 | 0.00 | 0.00 | 60 | 1014.6 |
| 20260504050516 | 53 | 219 | 4.0 | 8.0 | 0.00 | 0.00 | 0.00 | 44 | 1014.5 |
| 20260504050244 | 53 | 225 | 4.0 | 8.0 | 0.00 | 0.00 | 0.00 | 44 | 1014.5 |
| 20260504045514 | 53 | 229 | 4.0 | 10.0 | 0.00 | 0.00 | 0.00 | 44 | 1014.5 |
| 20260504045014 | 54 | 219 | 4.0 | 10.0 | 0.00 | 0.00 | 0.00 | 44 | 1014.4 |
| 20260504044511 | 54 | 226 | 4.0 | 9.0 | 0.00 | 0.00 | 0.00 | 44 | 1014.4 |
| 20260504044013 | 54 | 248 | 4.0 | 8.0 | 0.00 | 0.00 | 0.00 | 43 | 1014.4 |
| 20260504043513 | 54 | 225 | 4.0 | 7.0 | 0.00 | 0.00 | 0.00 | 44 | 1014.4 |
| 20260504043013 | 54 | 212 | 4.0 | 7.0 | 0.00 | 0.00 | 0.00 | 43 | 1014.3 |
| 20260504042512 | 54 | 218 | 4.0 | 9.0 | 0.00 | 0.00 | 0.00 | 43 | 1014.2 |
| 20260504042012 | 54 | 216 | 4.0 | 9.0 | 0.00 | 0.00 | 0.00 | 43 | 1014.1 |
| 20260504041512 | 54 | 236 | 4.0 | 9.0 | 0.00 | 0.00 | 0.00 | 43 | 1014.0 |
| 20260504041012 | 54 | 233 | 4.0 | 10.0 | 0.00 | 0.00 | 0.00 | 42 | 1013.9 |
| 20260504040512 | 55 | 232 | 5.0 | 10.0 | 0.00 | 0.00 | 0.00 | 42 | 1013.9 |
| 20260504040012 | 55 | 227 | 5.0 | 10.0 | 0.00 | 0.00 | 0.00 | 42 | 1013.9 |
| 20260504035511 | 55 | 268 | 5.0 | 10.0 | 0.00 | 0.00 | 0.00 | 42 | 1013.9 |
| 20260504035011 | 55 | 248 | 4.0 | 9.0 | 0.00 | 0.00 | 0.00 | 42 | 1013.8 |
| 20260504034511 | 55 | 224 | 4.0 | 8.0 | 0.00 | 0.00 | 0.00 | 42 | 1013.9 |
| 20260504034012 | 55 | 238 | 5.0 | 11.0 | 0.00 | 0.00 | 0.00 | 41 | 1013.7 |
| 20260504033511 | 55 | 236 | 5.0 | 11.0 | 0.00 | 0.00 | 0.00 | 41 | 1013.7 |
| 20260504033011 | 55 | 226 | 5.0 | 9.0 | 0.00 | 0.00 | 0.00 | 41 | 1013.7 |
| 20260504032512 | 55 | 215 | 4.0 | 9.0 | 0.00 | 0.00 | 0.00 | 41 | 1013.7 |
| 20260504032012 | 55 | 236 | 5.0 | 9.0 | 0.00 | 0.00 | 0.00 | 41 | 1013.7 |
| 20260504031744 | 55 | 223 | 5.0 | 9.0 | 0.00 | 0.00 | 0.00 | 41 | 1013.7 |
| 20260504031013 | 55 | 247 | 4.0 | 9.0 | 0.00 | 0.00 | 0.00 | 41 | 1013.7 |
| 20260504030512 | 56 | 253 | 5.0 | 10.0 | 0.00 | 0.00 | 0.00 | 40 | 1013.6 |
| 20260504030013 | 56 | 246 | 5.0 | 10.0 | 0.00 | 0.00 | 0.00 | 40 | 1013.7 |
| 20260504025512 | 56 | 236 | 4.0 | 9.0 | 0.00 | 0.00 | 0.00 | 40 | 1013.7 |
| 20260504025243 | 56 | 242 | 5.0 | 9.0 | 0.00 | 0.00 | 0.00 | 40 | 1013.8 |
| 20260504024506 | 56 | 241 | 5.0 | 9.0 | 0.00 | 0.00 | 0.00 | 40 | 1013.8 |
| 20260504024007 | 56 | 248 | 4.0 | 9.0 | 0.00 | 0.00 | 0.00 | 40 | 1013.8 |
| 20260504023507 | 56 | 227 | 4.0 | 9.0 | 0.00 | 0.00 | 0.00 | 40 | 1013.7 |
| 20260504023006 | 56 | 246 | 4.0 | 9.0 | 0.00 | 0.00 | 0.00 | 40 | 1013.6 |
| 20260504022506 | 56 | 249 | 5.0 | 9.0 | 0.00 | 0.00 | 0.00 | 39 | 1013.8 |
| 20260504022007 | 56 | 225 | 5.0 | 9.0 | 0.00 | 0.00 | 0.00 | 39 | 1013.8 |
| 20260504021504 | 56 | 198 | 4.0 | 11.0 | 0.00 | 0.00 | 0.00 | 39 | 1013.8 |
| 20260504021234 | 56 | 223 | 4.0 | 11.0 | 0.00 | 0.00 | 0.00 | 39 | 1013.7 |
| 20260504020504 | 56 | 227 | 4.0 | 7.0 | 0.00 | 0.00 | 0.00 | 39 | 1013.7 |
| 20260504020005 | 56 | 217 | 4.0 | 7.0 | 0.00 | 0.00 | 0.00 | 39 | 1013.7 |
| 20260504015503 | 56 | 213 | 4.0 | 8.0 | 0.00 | 0.00 | 0.00 | 39 | 1013.7 |
| 20260504015002 | 56 | 227 | 4.0 | 8.0 | 0.00 | 0.00 | 0.00 | 39 | 1013.7 |
| 20260504014459 | 56 | 229 | 3.0 | 8.0 | 0.00 | 0.00 | 0.00 | 39 | 1013.6 |
| 20260504014000 | 56 | 231 | 3.0 | 7.0 | 0.00 | 0.00 | 0.00 | 38 | 1013.7 |
| 20260504013459 | 56 | 225 | 3.0 | 7.0 | 0.00 | 0.00 | 0.00 | 38 | 1013.6 |
| 20260504012959 | 57 | 223 | 3.0 | 7.0 | 0.00 | 0.00 | 0.00 | 38 | 1013.6 |
| 20260504012500 | 57 | 238 | 3.0 | 7.0 | 0.00 | 0.00 | 0.00 | 38 | 1013.5 |
| 20260504011958 | 57 | 236 | 3.0 | 7.0 | 0.00 | 0.00 | 0.00 | 38 | 1013.4 |
| 20260504011459 | 57 | 232 | 3.0 | 7.0 | 0.00 | 0.00 | 0.00 | 37 | 1013.4 |
| 20260504010951 | 57 | 221 | 3.0 | 8.0 | 0.00 | 0.00 | 0.00 | 37 | 1013.3 |
| 20260504010446 | 57 | 248 | 3.0 | 9.0 | 0.00 | 0.00 | 0.00 | 37 | 1013.3 |
| 20260504010210 | 57 | 244 | 3.0 | 9.0 | 0.00 | 0.00 | 0.00 | 36 | 1013.2 |
| 20260504005434 | 58 | 250 | 3.0 | 8.0 | 0.00 | 0.00 | 0.00 | 36 | 1013.2 |
| 20260504004927 | 58 | 194 | 3.0 | 8.0 | 0.00 | 0.00 | 0.00 | 36 | 1013.1 |
| 20260504004421 | 58 | 232 | 3.0 | 8.0 | 0.00 | 0.00 | 0.00 | 36 | 1013.0 |
| 20260504003916 | 58 | 223 | 3.0 | 8.0 | 0.00 | 0.00 | 0.00 | 36 | 1013.0 |
| 20260504003410 | 58 | 248 | 4.0 | 7.0 | 0.00 | 0.00 | 0.00 | 35 | 1012.8 |
| 20260504003134 | 58 | 250 | 4.0 | 8.0 | 0.00 | 0.00 | 0.00 | 35 | 1012.9 |
| 20260504002357 | 58 | 249 | 3.0 | 10.0 | 0.00 | 0.00 | 0.00 | 34 | 1012.8 |
| 20260504001852 | 58 | 252 | 3.0 | 10.0 | 0.00 | 0.00 | 0.00 | 35 | 1012.8 |
| 20260504001345 | 59 | 252 | 5.0 | 10.0 | 0.00 | 0.00 | 0.00 | 34 | 1012.7 |
| 20260504000839 | 59 | 244 | 6.0 | 10.0 | 0.00 | 0.00 | 0.00 | 34 | 1012.7 |
| 20260504000334 | 59 | 269 | 6.0 | 10.0 | 0.00 | 0.00 | 0.00 | 33 | 1012.7 |
| 20260503235827 | 59 | 269 | 6.0 | 11.0 | 0.00 | 0.00 | 0.00 | 33 | 1012.6 |
| 20260503235321 | 59 | 243 | 6.0 | 11.0 | 0.00 | 0.00 | 0.00 | 32 | 1012.6 |
| 20260503235046 | 59 | 250 | 6.0 | 13.0 | 0.00 | 0.00 | 0.00 | 32 | 1012.6 |
| 20260503234309 | 59 | 236 | 7.0 | 13.0 | 0.00 | 0.00 | 0.00 | 32 | 1012.5 |
| 20260503233803 | 60 | 263 | 7.0 | 13.0 | 0.00 | 0.00 | 0.00 | 32 | 1012.5 |
| 20260503233258 | 60 | 281 | 7.0 | 14.0 | 0.00 | 0.00 | 0.00 | 32 | 1012.3 |
| 20260503232751 | 60 | 282 | 7.0 | 16.0 | 0.00 | 0.00 | 0.00 | 31 | 1012.3 |
| 20260503232246 | 60 | 263 | 8.0 | 17.0 | 0.00 | 0.00 | 0.00 | 31 | 1012.2 |
| 20260503231739 | 60 | 290 | 8.0 | 17.0 | 0.00 | 0.00 | 0.00 | 31 | 1012.3 |
| 20260503231505 | 60 | 268 | 7.0 | 14.0 | 0.00 | 0.00 | 0.00 | 31 | 1012.3 |
| 20260503230730 | 60 | 243 | 9.0 | 15.0 | 0.00 | 0.00 | 0.00 | 30 | 1012.2 |
| 20260503230723 | 61 | 271 | 10.0 | 19.0 | 0.00 | 0.00 | 0.00 | 30 | 1012.2 |
| 20260503225715 | 61 | 284 | 9.0 | 19.0 | 0.00 | 0.00 | 0.00 | 30 | 1012.2 |
| 20260503225210 | 61 | 290 | 9.0 | 18.0 | 0.00 | 0.00 | 0.00 | 30 | 1012.2 |
| 20260503224703 | 61 | 281 | 9.0 | 18.0 | 0.00 | 0.00 | 0.00 | 29 | 1012.2 |
| 20260503224158 | 61 | 271 | 9.0 | 17.0 | 0.00 | 0.00 | 0.00 | 29 | 1012.1 |
| 20260503223651 | 61 | 231 | 10.0 | 21.0 | 0.00 | 0.00 | 0.00 | 29 | 1012.2 |
| 20260503223146 | 61 | 254 | 9.0 | 21.0 | 0.00 | 0.00 | 0.00 | 29 | 1012.2 |
| 20260503222639 | 61 | 277 | 8.0 | 18.0 | 0.00 | 0.00 | 0.00 | 29 | 1012.0 |
| 20260503222134 | 61 | 273 | 9.0 | 18.0 | 0.00 | 0.00 | 0.00 | 29 | 1012.2 |
| 20260503221628 | 61 | 272 | 10.0 | 19.0 | 0.00 | 0.00 | 0.00 | 29 | 1012.2 |
| 20260503221122 | 61 | 319 | 11.0 | 25.0 | 0.00 | 0.00 | 0.00 | 29 | 1012.1 |
| 20260503220615 | 61 | 278 | 9.0 | 25.0 | 0.00 | 0.00 | 0.00 | 29 | 1012.1 |
| 20260503220110 | 61 | 322 | 7.0 | 17.0 | 0.00 | 0.00 | 0.00 | 30 | 1012.1 |
| 20260503215603 | 61 | 267 | 9.0 | 17.0 | 0.00 | 0.00 | 0.00 | 30 | 1012.2 |
| 20260503215058 | 61 | 273 | 9.0 | 17.0 | 0.00 | 0.00 | 0.00 | 29 | 1012.2 |
| 20260503214551 | 61 | 273 | 8.0 | 17.0 | 0.00 | 0.00 | 0.00 | 31 | 1012.2 |
| 20260503214045 | 61 | 261 | 7.0 | 17.0 | 0.00 | 0.00 | 0.00 | 30 | 1012.1 |
| 20260503213540 | 61 | 304 | 8.0 | 17.0 | 0.00 | 0.00 | 0.00 | 30 | 1012.1 |
| 20260503213034 | 61 | 265 | 9.0 | 17.0 | 0.00 | 0.00 | 0.00 | 29 | 1012.1 |
| 20260503212527 | 61 | 296 | 10.0 | 18.0 | 0.00 | 0.00 | 0.00 | 30 | 1012.2 |
| 20260503212022 | 61 | 244 | 10.0 | 18.0 | 0.00 | 0.00 | 0.00 | 29 | 1012.1 |
| 20260503211515 | 62 | 290 | 9.0 | 20.0 | 0.00 | 0.00 | 0.00 | 29 | 1012.1 |
| 20260503211010 | 61 | 303 | 9.0 | 23.0 | 0.00 | 0.00 | 0.00 | 29 | 1012.2 |
| 20260503210503 | 61 | 308 | 10.0 | 23.0 | 0.00 | 0.00 | 0.00 | 31 | 1012.3 |
| 20260503205957 | 61 | 306 | 13.0 | 23.0 | 0.00 | 0.00 | 0.00 | 29 | 1012.3 |
| 20260503205452 | 61 | 265 | 13.0 | 28.0 | 0.00 | 0.00 | 0.00 | 29 | 1012.1 |
| 20260503204945 | 61 | 269 | 11.0 | 28.0 | 0.00 | 0.00 | 0.00 | 29 | 1012.2 |
| 20260503204439 | 61 | 269 | 9.0 | 18.0 | 0.00 | 0.00 | 0.00 | 30 | 1012.3 |
| 20260503203935 | 61 | 273 | 8.0 | 18.0 | 0.00 | 0.00 | 0.00 | 30 | 1012.5 |
| 20260503203928 | 61 | 267 | 9.0 | 20.0 | 0.00 | 0.00 | 0.00 | 30 | 1012.5 |
| 20260503202920 | 61 | 284 | 12.0 | 30.0 | 0.00 | 0.00 | 0.00 | 31 | 1012.4 |
| 20260503202414 | 61 | 289 | 13.0 | 30.0 | 0.00 | 0.00 | 0.00 | 30 | 1012.4 |
| 20260503201913 | 60 | 275 | 11.0 | 24.0 | 0.00 | 0.00 | 0.00 | 31 | 1012.4 |
| 20260503201643 | 60 | 298 | 10.0 | 24.0 | 0.00 | 0.00 | 0.00 | 32 | 1012.4 |
| 20260503201144 | 60 | 326 | 11.0 | 24.0 | 0.00 | 0.00 | 0.00 | 31 | 1012.5 |
| 20260503200411 | 60 | 304 | 11.0 | 24.0 | 0.00 | 0.00 | 0.00 | 31 | 1012.4 |
| 20260503195912 | 60 | 268 | 12.0 | 24.0 | 0.00 | 0.00 | 0.00 | 30 | 1012.4 |
| 20260503195412 | 61 | 267 | 12.0 | 27.0 | 0.00 | 0.00 | 0.00 | 30 | 1012.5 |
| 20260503194912 | 60 | 275 | 13.0 | 27.0 | 0.00 | 0.00 | 0.00 | 31 | 1012.5 |
| 20260503194643 | 60 | 279 | 11.0 | 20.0 | 0.00 | 0.00 | 0.00 | 31 | 1012.5 |
| 20260503193911 | 60 | 298 | 11.0 | 20.0 | 0.00 | 0.00 | 0.00 | 33 | 1012.7 |
| 20260503193411 | 60 | 329 | 13.0 | 27.0 | 0.00 | 0.00 | 0.00 | 33 | 1012.7 |
| 20260503193144 | 60 | 324 | 13.0 | 27.0 | 0.00 | 0.00 | 0.00 | 31 | 1012.7 |
| 20260503192410 | 60 | 323 | 13.0 | 27.0 | 0.00 | 0.00 | 0.00 | 31 | 1012.8 |
| 20260503192142 | 60 | 335 | 13.0 | 27.0 | 0.00 | 0.00 | 0.00 | 31 | 1012.9 |
| 20260503191411 | 60 | 292 | 10.0 | 22.0 | 0.00 | 0.00 | 0.00 | 32 | 1012.9 |
| 20260503190909 | 59 | 281 | 9.0 | 22.0 | 0.00 | 0.00 | 0.00 | 34 | 1012.7 |
| 20260503190409 | 60 | 271 | 10.0 | 19.0 | 0.00 | 0.00 | 0.00 | 32 | 1012.9 |
| 20260503185909 | 60 | 284 | 10.0 | 27.0 | 0.00 | 0.00 | 0.00 | 33 | 1012.9 |
| 20260503185409 | 60 | 277 | 10.0 | 27.0 | 0.00 | 0.00 | 0.00 | 34 | 1013.0 |
| 20260503185139 | 60 | 296 | 13.0 | 27.0 | 0.00 | 0.00 | 0.00 | 30 | 1013.1 |
| 20260503184640 | 60 | 314 | 15.0 | 27.0 | 0.00 | 0.00 | 0.00 | 33 | 1013.1 |
| 20260503183908 | 60 | 301 | 12.0 | 23.0 | 0.00 | 0.00 | 0.00 | 31 | 1013.2 |
| 20260503183408 | 60 | 294 | 11.0 | 20.0 | 0.00 | 0.00 | 0.00 | 34 | 1013.2 |
| 20260503182909 | 60 | 296 | 11.0 | 19.0 | 0.00 | 0.00 | 0.00 | 32 | 1013.2 |
| 20260503182406 | 60 | 327 | 10.0 | 17.0 | 0.00 | 0.00 | 0.00 | 33 | 1013.1 |
| 20260503181905 | 60 | 328 | 9.0 | 17.0 | 0.00 | 0.00 | 0.00 | 34 | 1013.3 |
| 20260503181406 | 59 | 340 | 8.0 | 17.0 | 0.00 | 0.00 | 0.00 | 35 | 1013.1 |
| 20260503180905 | 58 | 307 | 10.0 | 21.0 | 0.00 | 0.00 | 0.00 | 33 | 1013.2 |
| 20260503180405 | 58 | 275 | 11.0 | 21.0 | 0.00 | 0.00 | 0.00 | 32 | 1013.1 |
| 20260503175904 | 58 | 296 | 11.0 | 22.0 | 0.00 | 0.00 | 0.00 | 34 | 1013.3 |
| 20260503175405 | 58 | 304 | 11.0 | 22.0 | 0.00 | 0.00 | 0.00 | 35 | 1013.5 |
| 20260503174904 | 58 | 323 | 11.0 | 19.0 | 0.00 | 0.00 | 0.00 | 35 | 1013.4 |
| 20260503174408 | 58 | 276 | 13.0 | 22.0 | 0.00 | 0.00 | 0.00 | 36 | 1013.3 |
| 20260503174403 | 57 | 296 | 13.0 | 22.0 | 0.00 | 0.00 | 0.00 | 35 | 1013.5 |
| 20260503173400 | 56 | 242 | 12.0 | 22.0 | 0.00 | 0.00 | 0.00 | 42 | 1013.5 |
| 20260503173132 | 56 | 312 | 12.0 | 22.0 | 0.00 | 0.00 | 0.00 | 38 | 1013.6 |
| 20260503172402 | 57 | 321 | 11.0 | 20.0 | 0.00 | 0.00 | 0.00 | 36 | 1013.6 |
| 20260503171901 | 57 | 284 | 10.0 | 20.0 | 0.00 | 0.00 | 0.00 | 38 | 1013.5 |
| 20260503171400 | 57 | 295 | 9.0 | 20.0 | 0.00 | 0.00 | 0.00 | 40 | 1013.6 |
| 20260503171132 | 57 | 280 | 10.0 | 20.0 | 0.00 | 0.00 | 0.00 | 38 | 1013.7 |
| 20260503170401 | 56 | 319 | 9.0 | 19.0 | 0.00 | 0.00 | 0.00 | 38 | 1013.7 |